Weather History for KRAP - September, 2013

Change the Weather History Date:

Monday, September 23, 2013

  Actual Average Record
Temperature  
Mean Temperature 53 °F 57 °F  
Max Temperature 61 °F 72 °F 97 °F (1992)
Min Temperature 45 °F 43 °F 24 °F (1985)
Degree Days  
Heating Degree Days 12 9  
Month to date heating degree days 50 116  
Since 1 July heating degree days 55 153  
Cooling Degree Days 0 1  
Month to date cooling degree days 129 56  
Year to date cooling degree days 720 628  
Growing Degree Days 4 (Base 50)    
Moisture  
Dew Point 53 °F    
Average Humidity 88    
Maximum Humidity 100    
Minimum Humidity 75    
Precipitation  
Precipitation 0.34 in 0.04 in 1.32 in (1977)
Month to date precipitation 1.08 0.98  
Year to date precipitation 15.14 13.61  
Snow  
Snow 0.00 in 0.00 in - ()
Month to date snowfall 0.0 0.1  
Since 1 July snowfall 0.0 0.1  
Since 1 September snowfall 0.0 0.1  
Snow Depth 0.00 in    
Sea Level Pressure  
Sea Level Pressure 29.75 in    
Wind  
Wind Speed 13 mph (North)    
Max Wind Speed 37 mph    
Max Gust Speed 47 mph    
Visibility 6 miles    
Events Fog , Rain    
T = Trace of Precipitation, MM = Missing Value Source: NWS Daily Summary

Daily Weather History Graph

Daily Weather History Graph

Search for Another Location

Airport or City:

Trip Planner

Search our weather history database for the weather conditions in past years. The results will help you decide how hot, cold, wet, or windy it might be!

Date:

Astronomy

Sep. 23, 2013 Rise Set
Actual Time 6:40 AM MDT 6:47 PM MDT
Civil Twilight 6:12 AM MDT 7:15 PM MDT
Nautical Twilight 5:38 AM MDT 7:49 PM MDT
Astronomical Twilight 5:03 AM MDT 8:24 PM MDT
Moon 9:10 PM MDT (9/23) 11:11 AM MDT (9/23)
Length of Visible Light 13h 03m
Length of Day
12h 06m
Waning Gibbous, 81% of the Moon is Illuminated
Sep 23
Waning Gibbous
Sep 26
Last Quarter
Oct 4
New
Oct 11
First Quarter
Oct 18
Full

Hourly Weather History & Observations

Time (MDT) Temp. Dew Point Humidity Pressure Visibility Wind Dir Wind Speed Gust Speed Precip Events Conditions
12:52 AM 60.1 °F 55.9 °F 86% 29.40 in 10.0 mi NW 10.4 mph - 0.03 in Rain Light Rain
1:52 AM 60.1 °F 55.9 °F 86% 29.40 in 10.0 mi West 6.9 mph - 0.01 in Rain Light Rain
2:52 AM 57.9 °F 55.9 °F 93% 29.42 in 10.0 mi SE 6.9 mph - 0.00 in   Partly Cloudy
3:52 AM 59.0 °F 55.0 °F 87% 29.43 in 10.0 mi SSE 8.1 mph - 0.00 in   Partly Cloudy
4:52 AM 59.0 °F 55.9 °F 90% 29.47 in 10.0 mi NNE 6.9 mph - N/A   Mostly Cloudy
5:52 AM 60.1 °F 55.0 °F 83% 29.50 in 10.0 mi NNW 13.8 mph - N/A   Overcast
6:52 AM 59.0 °F 55.0 °F 87% 29.51 in 10.0 mi NNW 12.7 mph - N/A   Overcast
7:52 AM 59.0 °F 54.0 °F 83% 29.53 in 10.0 mi NNW 25.3 mph 34.5 mph N/A   Mostly Cloudy
8:52 AM 59.0 °F 52.0 °F 78% 29.54 in 10.0 mi NNW 29.9 mph 41.4 mph N/A   Mostly Cloudy
9:52 AM 57.9 °F 48.9 °F 72% 29.59 in 10.0 mi NNW 28.8 mph 43.7 mph 0.00 in Rain Light Rain
10:52 AM 54.0 °F 50.0 °F 86% 29.64 in 5.0 mi NNW 31.1 mph 41.4 mph 0.01 in Rain Rain
11:52 AM 54.0 °F 50.0 °F 86% 29.69 in 6.0 mi NNW 25.3 mph 34.5 mph 0.11 in Rain Light Rain
12:52 PM 54.0 °F 52.0 °F 93% 29.71 in 6.0 mi NNW 24.2 mph 33.4 mph 0.08 in Rain Light Rain
1:52 PM 55.0 °F 52.0 °F 89% 29.72 in 8.0 mi NNW 24.2 mph 28.8 mph 0.07 in Rain Light Rain
2:52 PM 57.0 °F 54.0 °F 89% 29.73 in 10.0 mi NNW 20.7 mph 27.6 mph 0.06 in Rain Light Rain
3:52 PM 59.0 °F 55.0 °F 87% 29.76 in 10.0 mi North 10.4 mph - 0.00 in   Overcast
4:52 PM 59.0 °F 55.0 °F 87% 29.80 in 10.0 mi North 4.6 mph - N/A   Overcast
5:52 PM 59.0 °F 55.0 °F 87% 29.81 in 10.0 mi Calm Calm - N/A   Clear
6:52 PM 57.0 °F 55.0 °F 93% 29.83 in 10.0 mi SSE 6.9 mph - N/A   Clear
7:27 PM 55.4 °F 53.6 °F 94% 29.88 in 1.8 mi SE 8.1 mph - N/A   Scattered Clouds
7:30 PM 55.4 °F 53.6 °F 94% 29.88 in 0.8 mi SE 8.1 mph - N/A   Mist
7:40 PM 53.6 °F 53.6 °F 100% 29.88 in 0.2 mi SE 6.9 mph - N/A Fog Fog
7:52 PM 54.0 °F 53.1 °F 97% 29.87 in 0.2 mi SE 6.9 mph - N/A Fog Fog
8:11 PM 53.6 °F 53.6 °F 100% 29.90 in 0.5 mi ESE 5.8 mph - N/A Fog Fog
8:25 PM 53.6 °F 53.6 °F 100% 29.91 in 2.0 mi SE 5.8 mph - N/A   Overcast
8:37 PM 53.6 °F 53.6 °F 100% 29.91 in 0.8 mi South 5.8 mph - N/A   Mist
8:48 PM 53.6 °F 53.6 °F 100% 29.92 in 0.2 mi South 3.5 mph - N/A Fog Fog
8:52 PM 54.0 °F 54.0 °F 100% 29.90 in 0.2 mi South 4.6 mph - N/A Fog Fog
9:20 PM 55.4 °F 53.6 °F 94% 29.93 in 0.5 mi SSW 5.8 mph - N/A Fog Fog
9:27 PM 55.4 °F 53.6 °F 94% 29.93 in 2.0 mi South 4.6 mph - N/A   Overcast
9:52 PM 54.0 °F 54.0 °F 100% 29.91 in 5.0 mi SSW 5.8 mph - N/A   Overcast
10:52 PM 52.0 °F 51.1 °F 97% 29.94 in 7.0 mi Calm Calm - N/A   Mostly Cloudy
11:02 PM 51.8 °F 50.0 °F 94% 29.94 in 10.0 mi Calm Calm - N/A   Scattered Clouds
11:17 PM 50.0 °F 48.2 °F 94% 29.94 in 1.5 mi Calm Calm - N/A   Clear
11:20 PM 50.0 °F 48.2 °F 94% 29.94 in 0.5 mi Calm Calm - N/A Fog Fog
11:29 PM 50.0 °F 48.2 °F 94% 29.94 in 0.2 mi Calm Calm - N/A Fog Fog
11:52 PM 48.0 °F 46.9 °F 96% 29.96 in 0.2 mi Calm Calm - N/A Fog Fog
11:59 PM 48.2 °F 46.4 °F 93% 29.94 in 0.5 mi Calm Calm - N/A Fog Fog